Location: Fort Hays State University
(38.8712°N, 99.3432°W)
Time: 18:39:37
(UTC-05:00)

Cosmos 2279 Rocket - Visible Passes

Search period start: 30 October 2014 00:00
Search period end: 08 November 2014 23:00
Orbit: 964 x 980 km, 82.9° (Epoch: 30 October)

Date Brightness Start Highest point End Pass type
(mag) Time Alt. Az. Time Alt. Az. Time Alt. Az.
30 Oct 5.4 05:49:54 10° SSE 05:55:35 38° E 06:01:16 10° NNE visible
31 Oct 4.3 06:13:38 10° S 06:19:49 70° E 06:26:02 10° NNE visible
01 Nov 6.5 04:55:52 10° ESE 04:59:37 17° E 05:03:22 10° NE visible
01 Nov 3.9 06:38:01 10° SSW 06:44:13 67° W 06:50:26 10° N visible
01 Nov 7.3 19:24:17 10° WNW 19:25:25 11° WNW 19:26:33 10° W visible
02 Nov 5.7 04:18:19 10° SE 04:23:39 31° E 04:28:59 10° NNE visible
02 Nov 4.5 06:03:04 10° SW 06:08:47 37° WNW 06:14:30 10° N visible
03 Nov 4.6 04:41:46 10° SSE 04:47:50 56° E 04:53:54 10° NNE visible
03 Nov 5.1 06:28:58 10° WSW 06:33:31 21° WNW 06:38:05 10° NNW visible
04 Nov 6.7 03:25:05 10° ESE 03:27:46 13° E 03:30:26 10° NE visible
04 Nov 3.9 05:05:55 10° S 05:12:10 82° W 05:18:26 10° N visible
05 Nov 5.9 03:46:50 10° SE 03:51:44 25° E 03:56:37 10° NNE visible
05 Nov 4.2 05:30:44 10° SSW 05:36:40 46° WNW 05:42:38 10° N visible
06 Nov 4.9 04:10:00 10° SSE 04:15:52 45° E 04:21:44 10° NNE visible
06 Nov 4.8 05:56:16 10° SW 06:01:20 26° WNW 06:06:25 10° NNW visible
07 Nov 3.9 04:37:22 36° S 04:40:08 81° E 04:46:23 10° N visible
07 Nov 5.4 06:23:03 10° W 06:26:11 14° WNW 06:29:20 10° NW visible
08 Nov 6.2 03:20:02 20° E 03:20:02 20° E 03:24:08 10° NE visible
08 Nov 4.0 05:04:47 56° WNW 05:04:47 56° WNW 05:10:42 10° N visible
